Elwood, KS

5:19 AM CST on February 26, 2017 (GMT -0600)
Rosecrans Memorial

Weather History for KSTJ - June, 2014

Change the Weather History Date:

Sunday, June 15, 2014

  Actual Average Record
Temperature  
Mean Temperature 73 °F 74 °F  
Max Temperature 81 °F 84 °F 101 °F (1918)
Min Temperature 65 °F 64 °F 48 °F (1969)
Degree Days  
Heating Degree Days 0 0  
Month to date heating degree days 1 6  
Since 1 June heating degree days 1 6  
Since 1 July heating degree days 6270 5456  
Cooling Degree Days 8 9  
Month to date cooling degree days 90 113  
Year to date cooling degree days 251 226  
Since 1 June cooling degree days 90 113  
Growing Degree Days 22 (Base 50)    
Moisture  
Dew Point 64 °F    
Average Humidity 74    
Maximum Humidity 93    
Minimum Humidity 54    
Precipitation  
Precipitation 0.49 in 0.15 in 3.60 in (1943)
Month to date precipitation 5.77 2.41  
Year to date precipitation 13.54 15.36  
Sea Level Pressure  
Sea Level Pressure 29.79 in    
Wind  
Wind Speed 10 mph (SW)    
Max Wind Speed 35 mph    
Max Gust Speed 44 mph    
Visibility 9 miles    
Events Rain , Thunderstorm    
T = Trace of Precipitation, MM = Missing Value Source: NWS Daily Summary

Daily Weather History Graph

Daily Weather History Graph

Search for Another Location

Airport or City:

Trip Planner

Search our weather history database for the weather conditions in past years. The results will help you decide how hot, cold, wet, or windy it might be!

Date:

Astronomy

Jun. 15, 2014 Rise Set
Actual Time 5:50 AM CDT 8:49 PM CDT
Civil Twilight 5:18 AM CDT 9:22 PM CDT
Nautical Twilight 4:36 AM CDT 10:03 PM CDT
Astronomical Twilight 3:48 AM CDT 10:51 PM CDT
Moon 11:00 PM CDT (6/15) 8:44 AM CDT (6/15)
Length of Visible Light 16h 03m
Length of Day
14h 58m
Waning Gibbous, 91% of the Moon is Illuminated
Jun 15
Waning Gibbous
Jun 19
Last Quarter
Jun 27
New
Jul 5
First Quarter
Jul 12
Full

Hourly Weather History & Observations

Time (CDT) Temp. Heat Index Dew Point Humidity Pressure Visibility Wind Dir Wind Speed Gust Speed Precip Events Conditions
12:53 AM 77.0 °F - 66.9 °F 71% 29.62 in 10.0 mi South 21.9 mph 28.8 mph N/A   Overcast
1:53 AM 77.0 °F - 66.9 °F 71% 29.61 in 10.0 mi South 23.0 mph 31.1 mph N/A   Mostly Cloudy
2:50 AM 77.0 °F - 66.2 °F 69% 29.65 in 10.0 mi South 18.4 mph 26.5 mph N/A   Overcast
2:53 AM 77.0 °F - 66.9 °F 71% 29.62 in 10.0 mi South 19.6 mph 26.5 mph N/A   Overcast
3:27 AM 69.1 °F - 63.0 °F 81% 29.69 in 2.0 mi West 19.6 mph 43.7 mph 0.10 in Rain Heavy Rain
3:36 AM 68.0 °F - 64.0 °F 87% 29.69 in 3.0 mi WNW 18.4 mph 28.8 mph 0.16 in Rain Heavy Rain
3:53 AM 68.0 °F - 64.0 °F 87% 29.70 in 4.0 mi West 8.1 mph - 0.21 in Rain , Thunderstorm Rain
4:04 AM 66.9 °F - 64.0 °F 90% 29.74 in 5.0 mi West 10.4 mph - 0.02 in Rain Light Rain
4:21 AM 66.9 °F - 63.0 °F 87% 29.74 in 10.0 mi WNW 11.5 mph - 0.02 in Rain , Thunderstorm Light Rain
4:31 AM 66.9 °F - 63.0 °F 87% 29.76 in 9.0 mi West 11.5 mph - 0.03 in Rain , Thunderstorm Light Thunderstorms and Rain
4:53 AM 66.9 °F - 63.0 °F 87% 29.75 in 5.0 mi Variable 4.6 mph - 0.08 in Rain , Thunderstorm Rain
5:07 AM 66.0 °F - 63.0 °F 90% 29.76 in 4.0 mi WNW 9.2 mph - 0.04 in Rain Rain
6:53 AM 64.9 °F - 62.1 °F 90% 29.64 in 10.0 mi ESE 13.8 mph 24.2 mph 0.09 in   Mostly Cloudy
7:53 AM 66.0 °F - 62.1 °F 87% 29.74 in 10.0 mi West 8.1 mph - 0.00 in Rain Light Rain
8:53 AM 66.0 °F - 62.1 °F 87% 29.78 in 10.0 mi West 10.4 mph - 0.00 in   Clear
9:53 AM 68.0 °F - 63.0 °F 84% 29.81 in 10.0 mi WSW 13.8 mph - 0.00 in   Mostly Cloudy
10:53 AM 69.1 °F - 62.1 °F 78% 29.81 in 10.0 mi WSW 17.3 mph 25.3 mph N/A   Overcast
11:53 AM 71.1 °F - 62.1 °F 73% 29.83 in 10.0 mi West 16.1 mph - N/A   Overcast
12:53 PM 75.0 °F - 64.0 °F 69% 29.85 in 10.0 mi WSW 13.8 mph - N/A   Mostly Cloudy
1:22 PM 75.9 °F - 64.0 °F 67% 29.88 in 10.0 mi West 12.7 mph 21.9 mph N/A   Scattered Clouds
1:53 PM 77.0 °F - 64.9 °F 66% 29.86 in 10.0 mi SW 11.5 mph - N/A   Mostly Cloudy
2:53 PM 79.0 °F - 64.9 °F 62% 29.86 in 10.0 mi SW 12.7 mph - N/A   Mostly Cloudy
3:53 PM 80.1 °F 81.9 °F 64.9 °F 60% 29.87 in 10.0 mi SSW 11.5 mph - N/A   Mostly Cloudy
4:53 PM 79.0 °F - 64.0 °F 60% 29.87 in 10.0 mi SSW 6.9 mph - N/A   Partly Cloudy
5:53 PM 80.1 °F 81.2 °F 62.1 °F 54% 29.88 in 10.0 mi SSW 9.2 mph - N/A   Clear
6:53 PM 80.1 °F 81.5 °F 63.0 °F 56% 29.88 in 10.0 mi WSW 6.9 mph - N/A   Scattered Clouds
7:53 PM 78.1 °F - 64.9 °F 64% 29.89 in 10.0 mi South 8.1 mph - N/A   Partly Cloudy
8:53 PM 72.0 °F - 64.9 °F 78% 29.89 in 10.0 mi SSE 5.8 mph - N/A   Clear
9:53 PM 73.0 °F - 64.9 °F 76% 29.92 in 10.0 mi Calm Calm - N/A   Clear
10:53 PM 70.0 °F - 64.9 °F 84% 29.94 in 10.0 mi South 3.5 mph - N/A   Clear
11:53 PM 68.0 °F - 64.0 °F 87% 29.94 in 10.0 mi Calm Calm - N/A   Clear